| time (UTC) | temp C | wind direction | speed KPH | gust KPH | rain 1hr cm | rain 24hr cm | rain mn cm | humidity % | barometer mb |
| 20260508184557 | 19 | 0 | 6.4 | 17.7 | 0.00 | 0.00 | 0.00 | 40 | 1015.0 |
| 20260508183056 | 20 | 182 | 6.4 | 14.5 | 0.00 | 0.00 | 0.00 | 40 | 1015.1 |
| 20260508181629 | 19 | 229 | 8.0 | 24.1 | 0.00 | 0.00 | 0.00 | 41 | 1015.4 |
| 20260508174603 | 18 | 229 | 6.4 | 14.5 | 0.00 | 0.00 | 0.00 | 44 | 1015.7 |
| 20260508173100 | 19 | 93 | 4.8 | 17.7 | 0.00 | 0.00 | 0.00 | 41 | 1015.8 |
| 20260508171557 | 18 | 255 | 3.2 | 11.3 | 0.00 | 0.00 | 0.00 | 40 | 1016.0 |
| 20260508170056 | 18 | 203 | 4.8 | 14.5 | 0.00 | 0.00 | 0.00 | 40 | 1016.5 |
| 20260508164559 | 18 | 295 | 1.6 | 12.9 | 0.00 | 0.00 | 0.00 | 38 | 1016.6 |
| 20260508163106 | 18 | 327 | 3.2 | 12.9 | 0.00 | 0.00 | 0.00 | 39 | 1016.8 |
| 20260508161605 | 16 | 202 | 4.8 | 14.5 | 0.00 | 0.00 | 0.00 | 41 | 1017.1 |
| 20260508160058 | 16 | 227 | 3.2 | 12.9 | 0.00 | 0.00 | 0.00 | 43 | 1017.4 |
| 20260508154603 | 17 | 142 | 3.2 | 14.5 | 0.00 | 0.00 | 0.00 | 44 | 1017.6 |
| 20260508153058 | 16 | 196 | 3.2 | 8.0 | 0.00 | 0.00 | 0.00 | 47 | 1017.7 |
| 20260508151607 | 16 | 232 | 4.8 | 12.9 | 0.00 | 0.00 | 0.00 | 49 | 1017.7 |
| 20260508150057 | 15 | 325 | 3.2 | 12.9 | 0.00 | 0.00 | 0.00 | 51 | 1017.9 |
| 20260508144554 | 15 | 0 | 4.8 | 11.3 | 0.00 | 0.00 | 0.00 | 47 | 1017.9 |
| 20260508143104 | 15 | 238 | 3.2 | 8.0 | 0.00 | 0.00 | 0.00 | 47 | 1018.0 |
| 20260508141557 | 13 | 0 | 1.6 | 6.4 | 0.00 | 0.00 | 0.00 | 49 | 1018.0 |
| 20260508140059 | 13 | 194 | 1.6 | 9.7 | 0.00 | 0.00 | 0.00 | 50 | 1018.0 |
| 20260508134602 | 13 | 0 | 0.0 | 4.8 | 0.00 | 0.00 | 0.00 | 57 | 1018.0 |
| 20260508133104 | 13 | 175 | 1.6 | 4.8 | 0.00 | 0.00 | 0.00 | 58 | 1018.0 |
| 20260508131556 | 11 | 182 | 0.0 | 6.4 | 0.00 | 0.00 | 0.00 | 69 | 1018.0 |
| 20260508130059 | 11 | 211 | 1.6 | 6.4 | 0.00 | 0.00 | 0.00 | 75 | 1017.8 |
| 20260508124559 | 10 | 0 | 1.6 | 6.4 | 0.00 | 0.00 | 0.00 | 79 | 1017.8 |
| 20260508123108 | 9 | 79 | 0.0 | 3.2 | 0.00 | 0.00 | 0.00 | 81 | 1017.7 |
| 20260508121602 | 8 | 0 | 0.0 | 0.0 | 0.00 | 0.00 | 0.00 | 79 | 1017.7 |
| 20260508120107 | 7 | 0 | 0.0 | 0.0 | 0.00 | 0.00 | 0.00 | 87 | 1017.3 |
| 20260508114603 | 6 | 0 | 0.0 | 4.8 | 0.00 | 0.00 | 0.00 | 92 | 1017.2 |
| 20260508113059 | 5 | 0 | 0.0 | 3.2 | 0.00 | 0.00 | 0.00 | 93 | 1017.0 |
| 20260508111603 | 4 | 0 | 0.0 | 0.0 | 0.00 | 0.00 | 0.00 | 94 | 1016.9 |
| 20260508104556 | 3 | 0 | 0.0 | 0.0 | 0.00 | 0.00 | 0.00 | 94 | 1016.3 |
| 20260508103057 | 4 | 0 | 0.0 | 0.0 | 0.00 | 0.00 | 0.00 | 94 | 1015.9 |
| 20260508101557 | 4 | 0 | 0.0 | 0.0 | 0.00 | 0.00 | 0.00 | 94 | 1015.6 |
| 20260508100055 | 4 | 0 | 0.0 | 0.0 | 0.00 | 0.00 | 0.00 | 92 | 1015.4 |
| 20260508094606 | 5 | 0 | 0.0 | 0.0 | 0.00 | 0.00 | 0.00 | 92 | 1015.5 |
| 20260508093055 | 5 | 0 | 0.0 | 0.0 | 0.00 | 0.00 | 0.00 | 92 | 1015.3 |
| 20260508091559 | 5 | 0 | 0.0 | 0.0 | 0.00 | 0.00 | 0.00 | 92 | 1015.2 |
| 20260508084557 | 5 | 0 | 0.0 | 0.0 | 0.00 | 0.00 | 0.00 | 92 | 1014.9 |
| 20260508083100 | 5 | 0 | 0.0 | 6.4 | 0.00 | 0.00 | 0.00 | 92 | 1015.0 |
| 20260508081617 | 6 | 0 | 0.0 | 0.0 | 0.00 | 0.00 | 0.00 | 91 | 1014.8 |
| 20260508080054 | 6 | 0 | 0.0 | 1.6 | 0.00 | 0.00 | 0.00 | 90 | 1014.8 |
| 20260508074557 | 6 | 0 | 0.0 | 1.6 | 0.00 | 0.00 | 0.00 | 89 | 1014.6 |
| 20260508073055 | 6 | 360 | 1.6 | 4.8 | 0.00 | 0.00 | 0.00 | 90 | 1014.5 |
| 20260508071557 | 6 | 0 | 0.0 | 3.2 | 0.00 | 0.00 | 0.00 | 88 | 1014.4 |
| 20260508070106 | 6 | 0 | 1.6 | 6.4 | 0.00 | 0.00 | 0.00 | 86 | 1014.4 |
| 20260508064556 | 7 | 0 | 0.0 | 1.6 | 0.00 | 0.00 | 0.00 | 86 | 1014.2 |
| 20260508063056 | 6 | 0 | 0.0 | 1.6 | 0.00 | 0.00 | 0.00 | 89 | 1014.2 |
| 20260508061557 | 6 | 0 | 0.0 | 3.2 | 0.00 | 0.00 | 0.00 | 89 | 1014.1 |
| 20260508060106 | 7 | 360 | 0.0 | 3.2 | 0.00 | 0.00 | 0.00 | 88 | 1014.0 |
| 20260508054559 | 7 | 0 | 0.0 | 3.2 | 0.00 | 0.00 | 0.00 | 87 | 1014.0 |
| 20260508053059 | 7 | 360 | 1.6 | 4.8 | 0.00 | 0.00 | 0.00 | 87 | 1014.1 |
| 20260508051600 | 7 | 360 | 0.0 | 1.6 | 0.00 | 0.00 | 0.00 | 86 | 1014.0 |
| 20260508050058 | 7 | 0 | 0.0 | 4.8 | 0.00 | 0.00 | 0.00 | 84 | 1013.9 |
| 20260508044606 | 8 | 0 | 0.0 | 0.0 | 0.00 | 0.00 | 0.00 | 82 | 1013.7 |
| 20260508043107 | 8 | 0 | 0.0 | 1.6 | 0.00 | 0.00 | 0.00 | 83 | 1013.7 |
| 20260508041556 | 8 | 360 | 0.0 | 4.8 | 0.00 | 0.00 | 0.00 | 81 | 1013.6 |
| 20260508034558 | 8 | 0 | 1.6 | 4.8 | 0.00 | 0.00 | 0.00 | 80 | 1013.7 |
| 20260508033058 | 8 | 0 | 0.0 | 1.6 | 0.00 | 0.00 | 0.00 | 79 | 1013.6 |
| 20260508031556 | 9 | 0 | 0.0 | 0.0 | 0.00 | 0.00 | 0.00 | 77 | 1013.6 |
| 20260508030103 | 10 | 0 | 0.0 | 3.2 | 0.00 | 0.00 | 0.00 | 74 | 1013.4 |
| 20260508024601 | 10 | 0 | 0.0 | 1.6 | 0.00 | 0.00 | 0.00 | 73 | 1013.3 |
| 20260508023056 | 10 | 0 | 0.0 | 1.6 | 0.00 | 0.00 | 0.00 | 71 | 1013.1 |
| 20260508021601 | 11 | 0 | 0.0 | 3.2 | 0.00 | 0.00 | 0.00 | 68 | 1013.0 |
| 20260508014600 | 11 | 360 | 1.6 | 11.3 | 0.00 | 0.00 | 0.00 | 64 | 1012.7 |
| 20260508013102 | 12 | 0 | 3.2 | 8.0 | 0.00 | 0.00 | 0.00 | 62 | 1012.4 |
| 20260508011606 | 12 | 48 | 3.2 | 8.0 | 0.00 | 0.00 | 0.00 | 61 | 1012.1 |
| 20260508010056 | 12 | 352 | 3.2 | 12.9 | 0.00 | 0.00 | 0.00 | 60 | 1011.8 |
| 20260508004557 | 12 | 314 | 6.4 | 19.3 | 0.00 | 0.00 | 0.00 | 60 | 1011.6 |
| 20260508003059 | 12 | 20 | 4.8 | 9.7 | 0.00 | 0.00 | 0.00 | 61 | 1011.3 |
| 20260508001555 | 13 | 0 | 3.2 | 12.9 | 0.00 | 0.00 | 0.00 | 61 | 1011.2 |
| 20260508000057 | 14 | 313 | 0.0 | 8.0 | 0.00 | 0.00 | 0.00 | 62 | 1010.9 |
| 20260507234604 | 15 | 21 | 4.8 | 14.5 | 0.00 | 0.00 | 0.00 | 59 | 1011.0 |
| 20260507233058 | 16 | 355 | 9.7 | 24.1 | 0.00 | 0.00 | 0.00 | 56 | 1010.8 |
| 20260507231603 | 17 | 329 | 8.0 | 16.1 | 0.00 | 0.00 | 0.00 | 55 | 1010.6 |
| 20260507230100 | 17 | 310 | 4.8 | 20.9 | 0.00 | 0.00 | 0.00 | 56 | 1010.3 |
| 20260507224601 | 18 | 284 | 8.0 | 27.4 | 0.00 | 0.00 | 0.00 | 55 | 1010.1 |
| 20260507223100 | 18 | 290 | 14.5 | 24.1 | 0.00 | 0.00 | 0.00 | 56 | 1009.8 |
| 20260507221557 | 19 | 307 | 9.7 | 20.9 | 0.00 | 0.00 | 0.00 | 53 | 1009.4 |
| 20260507220055 | 20 | 340 | 9.7 | 24.1 | 0.00 | 0.00 | 0.00 | 51 | 1009.0 |
| 20260507214559 | 21 | 339 | 8.0 | 24.1 | 0.00 | 0.00 | 0.00 | 50 | 1008.6 |
| 20260507213056 | 21 | 309 | 11.3 | 29.0 | 0.00 | 0.00 | 0.00 | 50 | 1008.7 |
| 20260507211558 | 21 | 11 | 8.0 | 22.5 | 0.00 | 0.00 | 0.00 | 50 | 1008.3 |
| 20260507210057 | 22 | 321 | 8.0 | 22.5 | 0.00 | 0.00 | 0.00 | 47 | 1008.2 |
| 20260507204602 | 23 | 351 | 8.0 | 24.1 | 0.00 | 0.00 | 0.00 | 50 | 1008.0 |
| 20260507203107 | 23 | 313 | 11.3 | 27.4 | 0.00 | 0.00 | 0.00 | 49 | 1007.8 |
| 20260507201604 | 23 | 230 | 8.0 | 24.1 | 0.00 | 0.00 | 0.00 | 49 | 1007.6 |
| 20260507200058 | 23 | 275 | 12.9 | 27.4 | 0.00 | 0.00 | 0.00 | 49 | 1007.6 |
| 20260507194554 | 24 | 231 | 4.8 | 20.9 | 0.00 | 0.00 | 0.00 | 49 | 1007.4 |
| 20260507193059 | 24 | 229 | 8.0 | 20.9 | 0.00 | 0.00 | 0.00 | 50 | 1007.4 |
| 20260507191555 | 25 | 319 | 3.2 | 19.3 | 0.00 | 0.00 | 0.00 | 48 | 1007.6 |
| 20260507190055 | 25 | 246 | 11.3 | 20.9 | 0.00 | 0.00 | 0.00 | 49 | 1007.6 |